GW1540 Weather Reports


time (UTC)temp
C
wind
direction
speed
KPH
gust
KPH
rain 1hr
cm
rain 24hr
cm
rain mn
cm
humidity
%
barometer
mb
20260901160100 21 344 0.0 4.8 0.00 0.03 0.03 69 1019.2
20260901154536 21 229 1.6 8.0 0.00 0.03 0.03 69 1019.5
20260901151548 21 261 3.2 9.7 0.00 0.03 0.03 69 1019.4
20260901144557 21 267 0.0 6.4 0.00 0.03 0.03 68 1019.5
20260901141550 21 156 1.6 9.7 0.00 0.03 0.03 66 1019.4
20260901140046 21 239 4.8 12.9 0.00 0.03 0.03 66 1019.5
20260901134538 22 256 1.6 8.0 0.00 0.03 0.03 65 1019.4
20260901131559 22 57 3.2 12.9 0.00 0.03 0.03 66 1019.6
20260901130056 21 221 3.2 12.9 0.00 0.03 0.03 64 1019.6
20260901124533 22 231 3.2 12.9 0.00 0.03 0.03 63 1019.9
20260901121603 22 132 4.8 12.9 0.00 0.03 0.03 59 1019.9
20260901114603 21 18 4.8 9.7 0.00 0.03 0.03 65 1019.9
20260901111608 21 265 3.2 8.0 0.00 0.03 0.03 62 1020.0
20260901104556 21 195 0.0 8.0 0.00 0.03 0.03 65 1020.1
20260901101612 21 216 4.8 12.9 0.00 0.03 0.03 61 1020.4
20260901094547 20 355 1.6 14.5 0.00 0.03 0.03 62 1020.4
20260901091617 20 249 3.2 11.3 0.00 0.03 0.03 70 1020.4
20260901090058 20 206 0.0 12.9 0.00 0.03 0.03 74 1020.4
20260901084536 20 265 3.2 9.7 0.00 0.03 0.03 73 1020.2
20260901081543 20 223 6.4 16.1 0.00 0.03 0.03 70 1020.0
20260901074605 19 284 1.6 4.8 0.00 0.03 0.03 81 1019.6
20260901073100 18 272 1.6 4.8 0.00 0.03 0.03 85 1019.3
20260901071537 17 265 0.0 0.0 0.00 0.03 0.03 90 1019.6
20260901064602 15 265 0.0 0.0 0.03 0.03 0.03 96 1019.4
20260901063057 15 265 0.0 0.0 0.03 0.03 0.03 96 1019.3
20260901060033 13 265 0.0 0.0 0.03 0.03 0.03 96 1019.3
20260901053106 12 265 0.0 0.0 0.00 0.00 0.00 95 1019.2
20260901051530 11 265 0.0 0.0 0.00 0.00 0.00 95 1019.1
20260901044542 10 265 0.0 0.0 0.00 0.00 0.00 95 1018.8
20260901041607 9 265 0.0 0.0 0.00 0.00 0.00 94 1018.8
20260901040055 9 265 0.0 0.0 0.00 0.00 0.00 94 1018.7
20260901033102 10 265 0.0 0.0 0.00 0.00 0.00 94 1018.6
20260901031544 9 265 0.0 0.0 0.00 0.00 0.00 94 1018.4
20260901030048 10 265 0.0 0.0 0.00 0.00 0.00 95 1018.7
20260901023102 9 265 0.0 0.0 0.00 0.00 0.00 93 1018.5
20260901013058 10 265 0.0 0.0 0.00 0.00 0.00 94 1018.2
20260901010054 10 265 0.0 0.0 0.00 0.00 0.00 93 1018.2
20260901004554 10 265 0.0 0.0 0.00 0.00 0.00 93 1017.9
20260901003056 10 265 0.0 0.0 0.00 0.00 0.00 93 1017.9
20260901001542 10 265 0.0 3.2 0.00 0.00 0.00 93 1017.8
20260901000039 10 265 0.0 3.2 0.00 0.00 0.00 93 1017.6
20260831233247 11 265 0.0 0.0 0.00 0.00 0.00 93 1017.5
20260831231604 11 265 0.0 0.0 0.00 0.00 0.00 92 1017.3
20260831230056 11 265 0.0 0.0 0.00 0.00 0.00 92 1017.2
20260831223101 12 265 0.0 3.2 0.00 0.00 0.00 91 1017.0
20260831220139 12 265 0.0 3.2 0.00 0.00 0.00 91 1017.0
20260831214552 12 265 0.0 3.2 0.00 0.00 0.00 92 1016.9
20260831211611 12 265 0.0 3.2 0.00 0.00 0.00 92 1016.4
20260831210056 12 265 0.0 3.2 0.00 0.00 0.00 91 1016.1
20260831204532 12 265 0.0 1.6 0.00 0.00 0.00 92 1015.9
20260831201745 13 265 0.0 1.6 0.00 0.00 0.00 92 1015.6
20260831200033 13 265 0.0 0.0 0.00 0.00 0.00 90 1015.4
20260831193039 14 265 0.0 3.2 0.00 0.00 0.00 88 1015.4
20260831191539 15 265 0.0 3.2 0.00 0.00 0.00 88 1015.3
20260831184603 16 265 1.6 3.2 0.00 0.00 0.00 88 1015.2
20260831183039 16 265 0.0 3.2 0.00 0.00 0.00 86 1014.9
20260831180057 17 265 1.6 4.8 0.00 0.00 0.00 84 1014.7
20260831174545 18 265 1.6 4.8 0.00 0.00 0.00 84 1014.8
20260831173037 18 265 0.0 3.2 0.00 0.00 0.00 84 1014.6
20260831170043 20 265 0.0 3.2 0.00 0.00 0.00 80 1014.8
20260831163100 22 268 1.6 6.4 0.00 0.00 0.00 68 1014.9